Wind_Speed
37 37 36 35 35 34 29 25 26 28 30 32 33 34 34 34 32 31 28 25 24 24 23 22 21 20 19 18 16 15 14 13 12 11 11 10 9 9 9 9 9 9 9 10 10 11 12 12 13
40 39 39 39 38 34 28 26 28 29 31 34 35 35 35 34 33 31 29 26 25 25 24 23 22 21 20 19 18 17 15 14 13 13 12 11 10 10 10 9 9 10 10 11 12 12 13 13 14
43 42 42 42 40 34 27 27 30 32 33 35 36 36 35 34 33 32 30 28 26 26 26 25 23 22 21 20 19 18 16 15 14 14 13 12 11 11 10 10 11 11 12 12 12 13 13 14 15
46 46 45 45 41 34 30 31 33 34 35 36 37 37 35 34 33 32 31 29 28 27 27 26 25 24 23 21 20 19 18 17 16 15 14 13 12 12 11 11 12 12 13 13 13 13 14 14 15
48 49 49 47 42 36 33 34 36 37 37 37 37 37 36 35 34 33 32 31 30 29 29 28 26 25 24 23 21 20 19 18 17 16 15 14 13 13 12 12 13 13 13 13 13 13 14 15 16
51 52 51 48 43 38 37 37 39 39 39 39 38 38 37 36 35 35 34 33 32 31 30 30 28 26 25 24 23 22 20 19 18 17 16 15 14 14 13 13 14 14 13 13 13 14 15 16 17
53 54 53 50 46 42 39 40 41 40 40 40 39 39 38 37 36 36 35 34 34 33 32 31 30 28 26 25 24 23 21 20 19 18 17 16 15 15 15 15 14 14 14 14 14 15 16 17 18
54 56 55 52 48 44 41 43 43 42 42 42 42 41 39 38 37 37 37 36 35 34 33 32 31 30 28 26 25 24 22 21 20 19 18 18 17 16 16 15 15 15 15 15 15 16 17 17 19
56 57 56 52 49 45 44 46 46 45 45 44 43 42 41 40 39 39 38 37 36 35 34 33 32 31 30 28 26 25 24 22 21 20 20 19 18 17 16 16 16 15 15 15 16 16 17 19 20
58 59 53 51 50 48 48 48 48 48 47 46 44 43 42 41 40 39 38 37 36 35 35 34 34 32 31 30 28 26 25 23 22 22 21 20 19 18 17 17 16 16 16 16 17 18 19 20 21
58 57 52 52 51 51 51 51 51 51 50 47 45 44 43 42 41 40 39 37 37 36 36 35 35 33 32 31 29 27 26 25 24 23 22 21 20 19 19 18 17 17 17 17 18 19 20 21 22
57 56 54 52 51 51 52 53 53 53 51 48 47 47 45 43 42 40 39 38 38 37 36 36 35 34 33 32 30 29 27 26 25 24 23 22 21 20 20 19 18 18 18 18 19 20 21 22 24
56 55 53 53 53 52 53 54 55 54 52 50 49 49 48 46 44 42 41 40 39 38 37 36 35 34 34 33 32 30 29 27 26 25 24 23 22 21 21 20 20 19 19 20 20 22 23 24 25
53 53 52 52 52 53 54 54 55 54 52 52 51 50 49 48 45 44 42 41 40 39 38 36 35 35 34 34 33 32 30 29 27 26 24 24 23 22 22 21 20 20 20 21 22 23 24 25 26
51 52 52 51 51 53 55 57 55 52 53 52 52 50 50 48 46 44 43 41 40 40 38 37 36 35 35 34 34 33 32 31 29 27 26 25 24 23 23 22 21 21 22 22 23 24 25 26 27
49 52 53 50 50 52 56 57 53 52 53 53 52 51 50 49 47 46 44 43 42 41 39 38 36 36 35 35 34 34 33 32 31 29 27 26 25 24 24 23 23 23 23 23 25 25 26 26 28
47 50 50 49 50 52 56 56 53 53 53 53 52 52 51 50 49 47 46 44 43 42 40 39 37 37 36 35 34 34 33 32 31 30 28 27 26 25 24 24 24 24 24 25 26 26 27 27 28
45 48 48 48 49 51 54 55 53 53 53 53 53 53 52 51 49 47 46 45 44 43 41 40 38 38 37 36 35 35 34 33 32 30 29 28 27 26 25 25 25 25 25 26 27 27 27 28 29
43 45 46 46 49 51 53 53 53 54 55 54 54 54 53 51 49 48 48 47 46 44 42 41 39 39 38 37 36 35 33 32 32 31 30 28 27 27 26 26 26 26 27 27 27 27 28 29 30
42 43 43 44 47 50 52 53 53 55 56 55 54 54 53 52 52 50 48 48 47 45 43 42 40 39 38 37 36 35 34 33 32 32 31 29 28 28 28 27 27 27 27 28 28 28 29 30 31
40 41 40 42 45 48 50 53 54 54 56 56 55 54 54 53 52 51 49 49 48 46 44 42 41 40 39 38 37 36 35 34 33 32 31 30 29 29 29 28 28 28 28 28 28 29 30 31 32
35 37 39 41 44 47 49 51 53 53 55 56 55 54 53 53 53 52 50 49 48 46 45 43 41 40 40 39 38 36 35 34 33 32 31 31 30 30 29 29 29 29 29 29 29 30 31 32 32
33 33 37 39 41 44 46 50 50 51 53 55 54 53 53 52 52 52 51 49 48 47 46 44 42 41 41 40 39 37 35 35 34 33 32 31 31 30 30 30 30 29 30 30 30 31 31 32 33
31 32 34 37 40 44 43 46 49 49 50 51 52 52 52 52 51 51 51 50 49 49 47 45 43 42 41 40 39 37 36 35 35 34 33 32 31 31 30 31 30 30 30 31 31 31 32 33 33
29 31 33 35 39 41 40 44 45 43 44 47 51 52 52 52 52 51 51 50 50 49 48 46 44 42 41 40 39 38 37 36 35 34 34 33 32 32 31 31 31 31 31 31 31 32 33 33 34
30 31 32 33 36 37 38 41 39 40 42 44 48 51 52 53 52 51 51 50 49 49 48 46 44 43 41 40 39 38 37 36 35 35 34 33 33 32 32 32 32 32 32 32 32 33 33 34 34
27 31 31 33 33 34 36 36 35 38 40 42 45 50 51 52 52 51 50 50 49 48 47 46 44 43 42 40 39 38 37 36 35 35 34 34 33 33 33 33 32 32 32 32 33 33 34 34 34
25 27 30 32 32 33 34 35 31 32 37 40 43 47 48 50 50 50 50 50 49 48 47 46 45 44 42 41 40 39 37 36 36 35 35 34 33 33 33 33 33 33 33 33 33 34 34 35 35
24 27 30 31 33 34 34 34 31 29 32 37 40 44 47 49 49 49 50 50 49 49 48 46 46 44 43 42 41 39 38 37 37 36 34 33 33 34 34 33 33 33 33 33 34 34 34 35 35
25 27 30 32 34 35 35 33 32 30 31 33 38 42 44 47 49 48 48 49 49 48 48 47 45 44 43 42 41 40 39 38 37 36 35 34 34 34 34 33 33 33 34 34 34 34 34 34 34
Wind_Direction
254 253 252 250 248 246 243 239 236 234 232 230 229 228 228 227 228 229 228 225 223 223 223 224 226 226 227 228 229 231 235 237 237 239 243 248 256 263 268 275 285 290 295 299 303 307 310 313 314
253 251 250 249 248 246 242 237 235 233 232 230 230 229 228 227 227 228 227 225 223 222 223 224 225 226 227 228 229 231 233 235 236 239 243 248 255 261 266 274 284 288 292 296 301 304 307 310 311
252 250 248 247 247 245 241 235 233 231 230 230 230 230 229 227 226 227 227 226 224 221 222 223 223 224 226 228 229 229 230 233 236 240 243 248 253 258 263 271 280 284 290 295 299 302 305 307 310
252 250 248 247 246 243 238 234 233 232 231 232 231 231 229 228 227 227 227 225 224 221 222 222 222 223 225 227 228 228 230 233 235 240 243 247 251 255 261 269 278 283 288 293 298 303 305 308 311
250 249 248 246 245 240 237 234 233 233 231 232 232 231 229 227 226 227 227 225 223 222 222 222 222 223 225 226 227 229 230 232 235 239 242 246 249 255 262 269 277 282 287 292 297 302 305 309 311
249 248 248 247 244 239 235 234 234 233 232 231 232 231 229 227 226 226 227 226 224 223 222 222 222 223 224 226 227 228 230 232 235 237 240 243 248 255 261 268 276 280 285 291 296 301 305 308 309
249 248 247 246 242 237 234 233 234 233 233 232 231 230 228 226 226 226 226 226 225 224 223 223 222 222 224 226 226 227 229 231 234 236 238 242 248 255 260 267 274 278 283 288 294 299 304 308 310
248 247 246 244 242 237 233 233 233 233 232 231 231 229 227 225 225 225 225 225 225 225 224 223 222 223 225 226 226 227 229 231 233 234 237 241 248 254 260 267 273 277 281 286 292 298 304 308 310
246 245 244 243 241 236 232 232 232 232 230 230 230 228 227 225 224 224 224 225 225 225 224 224 223 223 225 226 227 228 228 230 232 234 237 240 246 253 260 266 272 276 280 285 290 297 303 307 310
245 244 244 242 239 235 231 230 230 230 230 230 229 228 227 226 225 224 224 225 225 224 224 224 223 224 225 225 226 228 228 229 231 234 237 241 246 252 259 265 271 276 280 284 289 296 302 306 309
244 244 242 240 237 234 230 229 228 229 229 229 229 228 227 226 225 224 223 223 224 223 223 224 223 224 224 225 226 228 228 229 231 234 237 241 247 252 258 264 271 277 280 284 289 296 301 305 308
242 241 239 237 234 232 229 227 227 228 228 227 227 227 226 225 224 223 223 223 223 222 223 224 223 223 223 224 225 226 228 229 231 234 237 242 247 251 258 263 271 277 280 284 290 295 299 304 307
240 239 237 235 232 230 229 227 227 227 226 226 225 225 225 224 223 223 222 222 222 222 222 224 224 223 223 224 225 226 228 228 231 234 238 243 248 252 258 264 270 276 280 284 289 295 299 302 306
239 237 235 233 232 229 228 227 226 225 226 226 225 225 225 225 224 223 222 222 222 222 222 223 224 224 223 223 224 225 227 229 231 234 239 244 249 253 259 264 270 275 280 284 290 295 298 302 305
237 236 233 232 230 228 228 227 225 224 225 225 224 224 224 224 224 223 223 222 222 221 220 222 224 224 223 224 224 225 227 229 231 235 240 245 250 254 259 264 270 275 279 284 290 294 298 302 305
235 235 233 230 229 228 229 228 223 224 225 225 224 223 223 223 223 223 222 222 221 219 219 221 223 224 224 225 226 227 228 230 232 236 240 246 250 254 259 264 269 274 279 284 290 294 298 301 304
233 233 232 228 227 227 229 228 223 224 225 224 223 223 223 222 222 222 222 221 220 219 219 220 222 223 224 225 226 227 228 231 233 237 241 246 249 253 259 264 269 274 279 284 290 294 297 300 303
233 232 232 229 226 227 228 227 224 224 225 224 222 222 222 222 222 222 222 220 219 219 219 220 221 223 224 224 226 227 229 231 234 237 241 246 250 254 259 264 269 274 279 284 289 293 296 299 302
233 233 233 229 227 228 228 227 224 224 224 223 221 221 221 221 221 221 220 219 219 219 220 221 221 222 224 224 225 227 229 232 234 238 242 246 250 254 260 264 269 274 279 284 289 292 295 298 301
232 232 232 228 227 229 229 227 224 223 224 223 221 220 219 219 219 219 219 219 218 219 220 221 222 223 224 224 226 227 229 232 234 238 242 246 250 255 260 264 269 275 280 284 287 291 294 297 300
231 231 231 229 226 227 230 229 224 222 224 223 221 219 218 218 219 219 220 219 219 219 219 221 223 224 224 225 227 228 230 233 236 240 243 246 250 255 259 264 270 275 280 283 287 290 293 296 299
231 231 231 230 229 227 228 231 225 223 223 223 222 219 218 218 218 219 219 219 219 219 220 221 223 224 225 226 227 229 231 234 237 241 244 246 250 255 259 264 270 275 279 283 286 290 292 296 299
228 228 230 231 230 230 228 232 225 223 223 222 222 220 219 218 219 219 219 218 218 219 220 222 223 224 225 227 228 230 232 234 237 240 242 246 250 254 259 264 269 273 278 282 285 289 292 295 297
229 230 231 231 231 232 229 233 228 224 224 223 221 220 219 218 219 219 220 219 218 219 220 222 223 224 226 228 229 231 233 235 237 240 243 246 250 254 259 264 268 272 277 281 285 288 291 294 296
231 231 231 232 232 232 229 233 229 224 223 223 221 219 219 218 218 218 220 220 218 219 219 221 223 225 227 229 231 232 233 235 237 240 243 247 251 255 259 263 267 272 276 280 283 287 291 293 295
232 231 230 232 234 233 230 231 226 222 221 221 222 219 218 217 218 218 219 220 219 219 219 220 223 225 228 229 231 232 234 235 238 240 244 248 252 256 259 263 267 271 275 278 282 286 289 292 294
235 233 231 231 234 235 233 229 225 224 222 222 221 219 218 218 218 218 218 220 220 220 220 221 222 225 227 229 231 233 234 236 238 241 245 249 252 255 258 262 266 270 274 277 281 285 288 290 293
238 233 229 229 234 236 232 227 224 223 223 222 221 219 218 219 218 217 217 218 219 220 221 222 223 224 226 227 230 232 235 237 240 243 246 249 252 255 258 262 265 269 273 277 280 283 286 289 291
236 230 229 231 235 236 234 227 224 224 224 223 221 219 218 218 218 219 219 219 220 220 221 222 223 224 225 227 229 232 235 238 241 243 246 249 251 254 258 262 265 269 272 276 279 282 285 287 290
235 231 230 231 232 234 235 228 227 229 225 224 221 220 218 217 218 218 219 220 221 222 222 222 223 224 225 227 229 231 234 237 241 243 246 249 251 254 257 261 265 268 272 275 278 280 284 286 289
Height
5811 5812 5814 5816 5817 5819 5823 5828 5829 5829 5831 5832 5834 5836 5838 5842 5845 5850 5852 5854 5857 5859 5861 5863 5865 5867 5869 5871 5872 5874 5875 5876 5877 5878 5879 5879 5880 5880 5880 5880 5879 5879 5878 5878 5877 5876 5875 5874 5873
5803 5805 5806 5808 5809 5813 5819 5822 5823 5824 5825 5826 5828 5830 5833 5836 5840 5844 5846 5849 5852 5855 5857 5859 5862 5864 5866 5868 5870 5871 5873 5874 5875 5876 5877 5877 5878 5878 5878 5878 5878 5877 5877 5876 5875 5874 5873 5872 5871
5794 5796 5797 5799 5801 5808 5814 5816 5816 5816 5817 5819 5821 5824 5828 5832 5836 5839 5842 5845 5848 5851 5854 5856 5858 5861 5863 5865 5867 5869 5870 5872 5873 5874 5875 5875 5876 5876 5876 5876 5876 5875 5875 5874 5873 5872 5871 5870 5869
5784 5786 5787 5790 5795 5802 5807 5808 5808 5809 5811 5813 5815 5819 5823 5828 5831 5834 5837 5840 5844 5847 5849 5852 5854 5857 5859 5862 5864 5866 5867 5869 5870 5871 5872 5873 5874 5874 5874 5874 5874 5873 5873 5872 5871 5870 5869 5868 5866
5773 5775 5777 5780 5787 5795 5799 5800 5800 5802 5805 5807 5809 5813 5817 5821 5825 5828 5831 5835 5838 5842 5845 5848 5850 5853 5856 5858 5860 5862 5864 5866 5868 5869 5870 5871 5872 5872 5872 5872 5871 5871 5870 5869 5868 5867 5866 5865 5864
5761 5763 5766 5771 5779 5786 5790 5791 5792 5794 5797 5800 5803 5806 5810 5815 5819 5822 5825 5829 5833 5836 5840 5843 5846 5849 5852 5854 5857 5859 5861 5863 5865 5866 5867 5868 5869 5869 5869 5869 5869 5868 5868 5867 5866 5865 5864 5863 5861
5750 5751 5755 5762 5768 5775 5781 5782 5784 5787 5790 5793 5796 5799 5803 5808 5813 5816 5819 5823 5827 5831 5834 5838 5841 5845 5848 5850 5853 5855 5858 5859 5861 5863 5864 5865 5866 5866 5866 5866 5866 5866 5865 5864 5863 5862 5861 5860 5858
5736 5738 5742 5750 5757 5766 5771 5772 5775 5777 5782 5785 5788 5792 5797 5802 5806 5809 5813 5817 5821 5825 5829 5833 5837 5840 5843 5846 5849 5851 5854 5856 5857 5859 5861 5862 5863 5863 5863 5863 5863 5863 5862 5861 5860 5859 5858 5856 5854
5721 5724 5730 5740 5747 5756 5759 5761 5765 5767 5771 5775 5780 5785 5790 5793 5798 5803 5807 5811 5815 5819 5823 5827 5831 5835 5838 5842 5844 5847 5850 5852 5854 5855 5857 5858 5859 5860 5860 5860 5860 5859 5859 5858 5857 5856 5855 5853 5851
5706 5710 5722 5731 5736 5741 5746 5749 5753 5757 5761 5766 5772 5777 5781 5786 5791 5796 5801 5805 5809 5814 5818 5822 5826 5830 5833 5837 5840 5843 5845 5848 5850 5851 5853 5854 5855 5856 5857 5857 5856 5856 5855 5855 5854 5852 5851 5849 5847
5693 5700 5711 5715 5721 5726 5732 5737 5741 5745 5752 5758 5764 5768 5773 5778 5784 5789 5794 5799 5803 5807 5811 5816 5820 5824 5828 5831 5835 5838 5841 5843 5845 5847 5849 5850 5851 5852 5853 5853 5853 5852 5852 5851 5850 5849 5847 5845 5843
5680 5688 5695 5701 5706 5712 5719 5724 5728 5734 5743 5749 5754 5759 5763 5769 5776 5782 5787 5792 5796 5801 5805 5809 5814 5818 5822 5826 5829 5833 5836 5839 5841 5843 5845 5846 5847 5848 5849 5849 5849 5849 5848 5847 5846 5845 5843 5841 5839
5666 5675 5681 5687 5693 5699 5705 5711 5717 5724 5733 5738 5743 5748 5755 5761 5767 5773 5779 5784 5789 5794 5798 5803 5808 5812 5816 5820 5824 5828 5831 5834 5836 5839 5840 5841 5843 5844 5844 5845 5845 5845 5844 5843 5842 5840 5838 5837 5834
5655 5661 5667 5673 5680 5686 5692 5699 5704 5716 5722 5727 5733 5739 5746 5752 5759 5765 5771 5777 5782 5787 5792 5797 5802 5806 5810 5814 5818 5822 5825 5829 5831 5834 5836 5837 5838 5839 5840 5840 5840 5840 5839 5838 5837 5836 5834 5832 5829
5641 5646 5653 5661 5668 5675 5680 5685 5696 5707 5711 5717 5723 5730 5736 5743 5750 5757 5763 5769 5775 5780 5786 5791 5795 5800 5804 5808 5813 5816 5820 5823 5826 5829 5831 5832 5834 5835 5835 5836 5836 5835 5835 5834 5833 5831 5829 5827 5824
5628 5633 5640 5651 5657 5663 5667 5674 5689 5694 5699 5706 5713 5720 5727 5734 5741 5748 5755 5761 5767 5773 5779 5784 5789 5793 5798 5802 5806 5810 5814 5817 5820 5823 5826 5827 5829 5830 5830 5831 5831 5831 5830 5829 5828 5826 5824 5822 5819
5616 5622 5630 5640 5645 5650 5655 5664 5678 5682 5687 5695 5703 5710 5717 5724 5732 5739 5746 5753 5759 5765 5771 5777 5782 5787 5792 5796 5800 5804 5808 5811 5814 5817 5820 5822 5823 5824 5825 5825 5826 5825 5825 5824 5823 5821 5819 5816 5814
5607 5613 5620 5628 5635 5639 5643 5653 5664 5670 5676 5684 5692 5700 5707 5715 5723 5731 5738 5744 5751 5757 5764 5770 5775 5780 5785 5789 5794 5798 5802 5805 5808 5811 5814 5816 5818 5819 5820 5820 5820 5820 5819 5818 5817 5815 5813 5811 5808
5597 5602 5609 5618 5623 5627 5632 5640 5650 5657 5663 5672 5680 5689 5697 5706 5715 5721 5728 5735 5742 5749 5756 5762 5768 5773 5778 5783 5788 5792 5796 5799 5802 5805 5808 5810 5812 5813 5814 5814 5815 5814 5814 5813 5811 5809 5807 5805 5802
5586 5592 5599 5606 5612 5615 5621 5628 5637 5645 5652 5661 5670 5679 5688 5697 5704 5712 5719 5727 5734 5741 5748 5754 5760 5766 5771 5776 5781 5785 5789 5792 5795 5798 5801 5804 5806 5807 5808 5808 5809 5808 5808 5807 5805 5804 5801 5799 5796
5579 5584 5590 5596 5601 5605 5610 5616 5625 5635 5642 5650 5659 5669 5678 5687 5696 5704 5711 5718 5726 5733 5741 5747 5753 5759 5764 5769 5773 5778 5782 5785 5789 5792 5795 5797 5799 5800 5801 5802 5802 5802 5802 5800 5799 5797 5795 5793 5790
5572 5579 5582 5587 5591 5595 5601 5604 5616 5624 5631 5641 5651 5660 5669 5678 5687 5695 5703 5710 5718 5726 5733 5739 5745 5751 5756 5761 5766 5771 5776 5780 5783 5786 5788 5790 5792 5794 5795 5795 5796 5796 5795 5794 5793 5791 5788 5786 5783
5567 5571 5575 5578 5582 5586 5592 5595 5606 5614 5621 5632 5642 5652 5661 5670 5678 5686 5694 5703 5711 5717 5724 5730 5736 5742 5748 5753 5759 5764 5769 5772 5776 5778 5781 5783 5785 5787 5788 5789 5789 5789 5788 5787 5786 5784 5782 5779 5776
5560 5564 5567 5570 5573 5577 5585 5588 5595 5607 5616 5626 5634 5643 5652 5660 5668 5677 5685 5693 5701 5708 5715 5721 5728 5734 5740 5745 5751 5756 5761 5764 5768 5771 5774 5776 5778 5780 5781 5782 5782 5782 5781 5780 5779 5777 5775 5772 5769
5554 5558 5561 5564 5566 5571 5579 5580 5589 5602 5610 5617 5625 5633 5641 5649 5658 5666 5674 5682 5691 5699 5706 5713 5720 5726 5732 5738 5743 5748 5753 5756 5760 5764 5767 5769 5771 5773 5774 5774 5774 5774 5774 5773 5772 5770 5768 5765 5762
5549 5552 5556 5560 5563 5567 5571 5574 5586 5594 5600 5606 5614 5622 5630 5639 5648 5657 5666 5674 5682 5690 5697 5704 5711 5718 5724 5730 5735 5740 5744 5748 5752 5756 5759 5761 5764 5765 5766 5767 5767 5767 5766 5766 5764 5762 5760 5758 5755
5543 5546 5551 5555 5557 5560 5564 5571 5578 5584 5591 5598 5605 5613 5621 5630 5639 5648 5657 5664 5672 5681 5689 5696 5703 5710 5716 5722 5727 5732 5736 5740 5744 5747 5750 5753 5755 5757 5758 5759 5759 5759 5759 5758 5757 5755 5753 5750 5748
5538 5542 5545 5548 5550 5554 5559 5565 5572 5578 5584 5590 5597 5605 5614 5622 5630 5639 5647 5655 5663 5672 5680 5687 5694 5701 5707 5713 5718 5723 5728 5732 5736 5739 5742 5745 5747 5749 5750 5751 5751 5751 5751 5750 5749 5747 5745 5743 5740
5534 5537 5539 5542 5546 5550 5554 5562 5567 5572 5578 5583 5589 5596 5605 5613 5622 5630 5639 5647 5654 5662 5670 5677 5685 5691 5698 5704 5710 5715 5720 5724 5727 5731 5734 5736 5738 5740 5742 5743 5743 5743 5743 5742 5741 5739 5737 5735 5732
5528 5531 5534 5537 5541 5544 5548 5557 5561 5566 5571 5576 5581 5588 5596 5604 5613 5622 5630 5637 5645 5653 5660 5668 5675 5682 5689 5695 5701 5706 5711 5715 5719 5722 5726 5728 5730 5732 5733 5734 5735 5735 5735 5734 5733 5731 5729 5727 5724